Flag for Canada Weather past 2 weeks in Inuvik, Northwest Territories, Canada

Now
68 °F

Broken clouds.


Feels Like: 68 °F
Forecast: 45 / 65 °F
Wind: 5 mph from West

Location: Inuvik

Current Time: Jul 31, 2015 at 5:32:36 PM

Latest Report: Jul 31, 2015 at 5:00 PM


Visibility: 15 mi

Pressure: 29.94 "Hg

Humidity: 49%

Dew point: 48 °F

Location of InuvikLocation

Historic Weather in Inuvik — Graph

°F

Inuvik temperature yesterday

Maximum temperature yesterday: 59 °F (at 4:00 PM)
Minimum temperature yesterday: 46 °F (at 3:00 AM)
Average temperature yesterday: 52 °F

Past Weeks' High & Low Weather Summary

 TemperatureHumidityPressure
High73 °F (Jul 16, 5:00 PM)100% (Jul 18, 12:00 AM)30.10 "Hg (Jul 18, 12:00 AM)
Low43 °F (Jul 24, 7:00 AM)47% (Jul 19, 6:00 PM)29.59 "Hg (Jul 17, 11:00 PM)
Average54 °F83%29.87 "Hg
* Reported Jul 16 4:00 PM — Jul 31 4:00 PM, Inuvik, Weather by CustomWeather, © 2015

Note: Actual official high and low records may vary slightly from our data, if they occured in-between our weather recording intervals... More about our weather records

Advertising

Inuvik weather history for previous 24 hours

 ConditionsComfort  
Time TempWeatherWind HumidityBarometerVisibility
4:00 PM
Fri, Jul 31
66 °FScattered clouds.5 mph52%29.95 "Hg15 mi
3:00 PM64 °FBroken clouds.2 mph60%29.97 "Hg15 mi
2:00 PM63 °FPartly sunny.No wind64%29.98 "Hg15 mi
1:00 PM61 °FPartly sunny.3 mph63%29.99 "Hg15 mi
12:00 PM59 °FPartly sunny.2 mph68%30.00 "Hg15 mi
11:00 AM57 °FPartly sunny.3 mph72%30.02 "Hg15 mi
10:00 AM55 °FPartly sunny.2 mph77%30.03 "Hg15 mi
9:00 AM52 °FPartly sunny.3 mph88%30.02 "Hg15 mi
8:00 AM48 °FPartly sunny.No wind94%30.03 "Hg15 mi
7:00 AM45 °FPartly sunny.No wind93%30.04 "Hg15 mi
6:00 AM45 °FPassing clouds.2 mph93%30.04 "Hg15 mi
5:00 AM45 °FPassing clouds.2 mph87%30.04 "Hg15 mi
4:00 AM48 °FPassing clouds.No wind87%30.04 "Hg15 mi
3:00 AM48 °FScattered clouds.2 mph87%30.05 "Hg15 mi
2:00 AM50 °FScattered clouds.2 mph88%30.05 "Hg15 mi
1:00 AM54 °FBroken clouds.5 mph82%30.06 "Hg15 mi
12:00 AM55 °FPartly sunny.5 mph77%30.06 "Hg15 mi
11:00 PM
Thu, Jul 30
55 °FBroken clouds.5 mph77%30.06 "Hg15 mi
10:00 PM57 °FPartly sunny.6 mph67%30.06 "Hg15 mi
9:00 PM57 °FPartly sunny.6 mph72%30.06 "Hg15 mi
8:00 PM59 °FPartly sunny.7 mph63%30.06 "Hg15 mi
7:00 PM57 °FOvercast.7 mph67%30.07 "Hg15 mi
6:00 PM57 °FPartly sunny.5 mph67%30.08 "Hg15 mi
5:00 PM57 °FPartly sunny.5 mph67%30.09 "Hg15 mi
Weather by CustomWeather, © 2015

See weather overviewHow to use our weather pages